Flag for Dominica Weather past 2 weeks in Roseau, Dominica

Now
84 °F

Sprinkles. Broken clouds.


Feels Like: 91 °F
Forecast: 81 / 85 °F
Wind: 1 mph from Northwest

Location: Canefield Airport

Current Time: Sep 23, 2014 at 2:46:39 PM

Latest Report: Sep 23, 2014 at 2:00 PM


Visibility: N/A

Pressure: 29.89 "Hg

Humidity: 70%

Dew point: 73 °F

Location of RoseauLocation

Historic Weather in Roseau — Graph

°F

Roseau temperature yesterday

Maximum temperature yesterday: 86 °F (at 11:00 AM)
Minimum temperature yesterday: 77 °F (at 6:00 AM)
Average temperature yesterday: 83 °F

Past Weeks' High & Low Weather Summary

 TemperatureHumidityPressure
High91 °F (Sep 8, 2:00 PM)89% (Sep 13, 6:00 AM)30.04 "Hg (Sep 13, 6:00 AM)
Low73 °F (Sep 19, 6:00 PM)38% (Sep 10, 2:00 PM)29.86 "Hg (Sep 10, 4:00 PM)
Average83 °F67%29.93 "Hg
* Reported Sep 8 1:00 PM — Sep 23 1:00 PM, Roseau, Weather by CustomWeather, © 2014

Note: Actual official high and low records may vary slightly from our data, if they occured in-between our weather recording intervals... More about our weather records

Advertising

Roseau weather history for previous 24 hours

 ConditionsComfort  
Time TempWeatherWind HumidityBarometerVisibility
1:00 PM
Sep 23
81 °FLight rain. Partly sunny.5 mph84%29.92 "HgN/A
12:00 PM79 °FSprinkles. Broken clouds.No wind84%29.95 "HgN/A
11:25 AM86 °FRain showers. Partly sunny.5 mph66%29.95 "Hg2 mi
11:00 AM86 °FPartly sunny.5 mph66%29.95 "HgN/A
10:00 AM84 °FPartly sunny.3 mph74%29.95 "HgN/A
9:00 AM79 °FSprinkles. Partly sunny.2 mph89%29.95 "HgN/A
8:00 AM77 °FSprinkles. Broken clouds.3 mph83%29.95 "Hg2 mi
7:00 AM77 °FPassing clouds.1 mph83%29.89 "HgN/A
6:00 AM77 °FScattered clouds.No wind83%29.89 "HgN/A
8:00 PM
Sep 22
79 °FPassing clouds.2 mph79%29.89 "HgN/A
7:00 PM81 °FSprinkles. Passing clouds.2 mph74%29.89 "HgN/A
6:00 PM82 °FPartly sunny.2 mph66%29.89 "HgN/A
5:00 PM86 °FPartly sunny.5 mph62%29.89 "HgN/A
4:00 PM86 °FPartly sunny.2 mph62%29.86 "HgN/A
3:00 PM86 °FBroken clouds.3 mph62%29.86 "HgN/A
2:00 PM86 °FPassing clouds.5 mph62%29.89 "HgN/A
Weather by CustomWeather, © 2014

See weather overviewHow to use our weather pages